| time (UTC) | temp F | wind direction | speed MPH | gust MPH | rain 1hr in | rain 24hr in | rain mn in | humidity % | barometer mb |
| 20260505002823 | 68 | 231 | 0.0 | 6.0 | 0.00 | 0.13 | 0.00 | 59 | 1017.1 |
| 20260505002316 | 68 | 240 | 0.0 | 2.0 | 0.00 | 0.13 | 0.00 | 57 | 1017.1 |
| 20260505001756 | 68 | 242 | 0.0 | 2.0 | 0.00 | 0.13 | 0.00 | 58 | 1017.1 |
| 20260505001503 | 68 | 242 | 0.0 | 2.0 | 0.00 | 0.13 | 0.00 | 59 | 1017.1 |
| 20260505000719 | 68 | 241 | 0.0 | 2.0 | 0.00 | 0.13 | 0.00 | 60 | 1017.1 |
| 20260505000208 | 68 | 241 | 0.0 | 2.0 | 0.00 | 0.13 | 0.00 | 59 | 1017.0 |
| 20260504235654 | 68 | 242 | 0.0 | 2.0 | 0.00 | 0.13 | 0.00 | 62 | 1017.1 |
| 20260504235143 | 67 | 242 | 0.0 | 4.0 | 0.00 | 0.13 | 0.00 | 61 | 1017.1 |
| 20260504234637 | 67 | 242 | 0.0 | 4.0 | 0.00 | 0.13 | 0.00 | 60 | 1017.3 |
| 20260504234344 | 67 | 242 | 0.0 | 2.0 | 0.00 | 0.13 | 0.00 | 62 | 1017.3 |
| 20260504233622 | 67 | 242 | 0.0 | 2.0 | 0.00 | 0.13 | 0.00 | 62 | 1017.4 |
| 20260504233116 | 67 | 242 | 0.0 | 2.0 | 0.00 | 0.13 | 0.00 | 63 | 1017.4 |
| 20260504232606 | 66 | 292 | 0.0 | 2.0 | 0.00 | 0.13 | 0.00 | 63 | 1017.4 |
| 20260504232100 | 66 | 121 | 0.0 | 2.0 | 0.00 | 0.13 | 0.00 | 64 | 1017.4 |
| 20260504231553 | 66 | 122 | 0.0 | 1.0 | 0.00 | 0.13 | 0.00 | 64 | 1017.4 |
| 20260504231043 | 66 | 122 | 0.0 | 0.0 | 0.00 | 0.13 | 0.00 | 65 | 1017.3 |
| 20260504230533 | 65 | 122 | 0.0 | 2.0 | 0.00 | 0.13 | 0.00 | 69 | 1017.1 |
| 20260504230028 | 65 | 122 | 0.0 | 2.0 | 0.00 | 0.13 | 0.00 | 67 | 1017.1 |
| 20260504225517 | 64 | 121 | 0.0 | 4.0 | 0.00 | 0.13 | 0.00 | 67 | 1017.1 |
| 20260504225007 | 64 | 122 | 0.0 | 4.0 | 0.00 | 0.13 | 0.00 | 67 | 1017.1 |
| 20260504224722 | 64 | 122 | 0.0 | 2.0 | 0.00 | 0.13 | 0.00 | 68 | 1017.1 |
| 20260504223944 | 63 | 121 | 0.0 | 1.0 | 0.00 | 0.13 | 0.00 | 70 | 1017.1 |
| 20260504223447 | 63 | 122 | 0.0 | 0.0 | 0.00 | 0.13 | 0.00 | 72 | 1017.1 |
| 20260504222930 | 63 | 122 | 0.0 | 2.0 | 0.00 | 0.13 | 0.00 | 72 | 1017.3 |
| 20260504222417 | 62 | 121 | 0.0 | 2.0 | 0.00 | 0.13 | 0.00 | 73 | 1017.3 |
| 20260504222130 | 62 | 122 | 0.0 | 0.0 | 0.00 | 0.13 | 0.00 | 74 | 1017.4 |
| 20260504221408 | 61 | 121 | 0.0 | 1.0 | 0.00 | 0.13 | 0.00 | 76 | 1017.4 |
| 20260504221128 | 60 | 121 | 0.0 | 1.0 | 0.00 | 0.13 | 0.00 | 78 | 1017.3 |
| 20260504220359 | 59 | 121 | 0.0 | 0.0 | 0.00 | 0.13 | 0.00 | 82 | 1017.0 |
| 20260504215853 | 58 | 121 | 0.0 | 0.0 | 0.00 | 0.13 | 0.00 | 87 | 1017.0 |
| 20260504215346 | 57 | 121 | 0.0 | 0.0 | 0.00 | 0.13 | 0.00 | 89 | 1016.9 |
| 20260504214835 | 56 | 121 | 0.0 | 0.0 | 0.00 | 0.13 | 0.00 | 90 | 1016.7 |
| 20260504214336 | 56 | 121 | 0.0 | 0.0 | 0.00 | 0.13 | 0.00 | 90 | 1016.6 |
| 20260504213818 | 56 | 121 | 0.0 | 0.0 | 0.00 | 0.13 | 0.00 | 91 | 1016.4 |
| 20260504213541 | 55 | 121 | 0.0 | 0.0 | 0.00 | 0.13 | 0.00 | 91 | 1016.4 |
| 20260504212755 | 55 | 121 | 0.0 | 0.0 | 0.00 | 0.13 | 0.00 | 91 | 1016.3 |
| 20260504212244 | 55 | 121 | 0.0 | 0.0 | 0.00 | 0.13 | 0.00 | 91 | 1016.3 |
| 20260504211736 | 55 | 121 | 0.0 | 0.0 | 0.00 | 0.13 | 0.00 | 91 | 1016.2 |
| 20260504211236 | 55 | 121 | 0.0 | 0.0 | 0.00 | 0.13 | 0.00 | 90 | 1016.1 |
| 20260504210732 | 55 | 121 | 0.0 | 0.0 | 0.00 | 0.13 | 0.00 | 90 | 1016.1 |
| 20260504210233 | 54 | 121 | 0.0 | 0.0 | 0.00 | 0.13 | 0.00 | 90 | 1016.0 |
| 20260504205946 | 54 | 121 | 0.0 | 0.0 | 0.00 | 0.13 | 0.00 | 90 | 1015.9 |
| 20260504205212 | 54 | 121 | 0.0 | 0.0 | 0.00 | 0.13 | 0.00 | 89 | 1015.9 |
| 20260504204703 | 54 | 121 | 0.0 | 0.0 | 0.00 | 0.13 | 0.00 | 89 | 1015.7 |
| 20260504204137 | 55 | 121 | 0.0 | 0.0 | 0.00 | 0.13 | 0.00 | 89 | 1015.7 |
| 20260504203637 | 55 | 121 | 0.0 | 0.0 | 0.00 | 0.13 | 0.00 | 89 | 1015.6 |
| 20260504203117 | 55 | 121 | 0.0 | 0.0 | 0.00 | 0.13 | 0.00 | 89 | 1015.4 |
| 20260504202613 | 55 | 121 | 0.0 | 0.0 | 0.00 | 0.13 | 0.00 | 88 | 1015.3 |
| 20260504202327 | 55 | 121 | 0.0 | 0.0 | 0.00 | 0.13 | 0.00 | 88 | 1015.3 |
| 20260504201550 | 55 | 121 | 0.0 | 0.0 | 0.00 | 0.13 | 0.00 | 88 | 1015.3 |
| 20260504201041 | 55 | 122 | 0.0 | 0.0 | 0.00 | 0.13 | 0.00 | 88 | 1015.2 |
| 20260504200536 | 55 | 122 | 0.0 | 0.0 | 0.00 | 0.13 | 0.00 | 88 | 1015.2 |
| 20260504200037 | 55 | 121 | 0.0 | 0.0 | 0.00 | 0.13 | 0.00 | 88 | 1015.1 |
| 20260504195533 | 55 | 121 | 0.0 | 0.0 | 0.00 | 0.13 | 0.00 | 88 | 1015.1 |
| 20260504195027 | 55 | 121 | 0.0 | 0.0 | 0.00 | 0.13 | 0.00 | 88 | 1015.1 |
| 20260504194522 | 55 | 121 | 0.0 | 0.0 | 0.00 | 0.13 | 0.00 | 88 | 1014.9 |
| 20260504194023 | 55 | 121 | 0.0 | 0.0 | 0.00 | 0.13 | 0.00 | 88 | 1015.0 |
| 20260504193459 | 56 | 122 | 0.0 | 0.0 | 0.00 | 0.13 | 0.00 | 88 | 1015.0 |
| 20260504193001 | 56 | 121 | 0.0 | 0.0 | 0.00 | 0.13 | 0.00 | 88 | 1015.0 |
| 20260504192652 | 56 | 121 | 0.0 | 0.0 | 0.00 | 0.13 | 0.00 | 88 | 1014.9 |
| 20260504191930 | 56 | 121 | 0.0 | 0.0 | 0.00 | 0.13 | 0.00 | 88 | 1014.9 |
| 20260504191433 | 56 | 121 | 0.0 | 0.0 | 0.00 | 0.13 | 0.00 | 88 | 1014.9 |
| 20260504190921 | 56 | 121 | 0.0 | 0.0 | 0.00 | 0.13 | 0.00 | 87 | 1014.8 |
| 20260504190351 | 56 | 122 | 0.0 | 0.0 | 0.00 | 0.13 | 0.00 | 87 | 1014.8 |
| 20260504185840 | 56 | 121 | 0.0 | 0.0 | 0.00 | 0.13 | 0.00 | 87 | 1014.6 |
| 20260504185549 | 56 | 121 | 0.0 | 0.0 | 0.00 | 0.13 | 0.00 | 87 | 1014.6 |
| 20260504185055 | 56 | 121 | 0.0 | 0.0 | 0.00 | 0.13 | 0.00 | 87 | 1014.6 |
| 20260504184308 | 57 | 121 | 0.0 | 0.0 | 0.00 | 0.13 | 0.00 | 87 | 1014.6 |
| 20260504183803 | 57 | 121 | 0.0 | 0.0 | 0.00 | 0.13 | 0.00 | 87 | 1014.5 |
| 20260504183242 | 57 | 121 | 0.0 | 0.0 | 0.00 | 0.13 | 0.00 | 87 | 1014.3 |
| 20260504182732 | 57 | 121 | 0.0 | 0.0 | 0.00 | 0.13 | 0.00 | 87 | 1014.2 |
| 20260504182211 | 58 | 121 | 0.0 | 0.0 | 0.00 | 0.13 | 0.00 | 87 | 1014.1 |
| 20260504181710 | 58 | 121 | 0.0 | 0.0 | 0.00 | 0.13 | 0.00 | 87 | 1014.1 |
| 20260504181158 | 58 | 121 | 0.0 | 0.0 | 0.00 | 0.13 | 0.00 | 87 | 1014.1 |
| 20260504180650 | 58 | 121 | 0.0 | 0.0 | 0.00 | 0.13 | 0.00 | 87 | 1014.1 |
| 20260504180347 | 58 | 121 | 0.0 | 0.0 | 0.00 | 0.13 | 0.00 | 87 | 1014.1 |
| 20260504175828 | 58 | 121 | 0.0 | 0.0 | 0.00 | 0.13 | 0.00 | 87 | 1014.2 |
| 20260504175047 | 59 | 121 | 0.0 | 0.0 | 0.00 | 0.13 | 0.00 | 86 | 1014.2 |
| 20260504174533 | 59 | 121 | 0.0 | 0.0 | 0.00 | 0.13 | 0.00 | 87 | 1014.2 |
| 20260504174253 | 59 | 121 | 0.0 | 0.0 | 0.00 | 0.13 | 0.00 | 87 | 1014.1 |
| 20260504173747 | 60 | 121 | 0.0 | 0.0 | 0.00 | 0.13 | 0.00 | 87 | 1014.2 |
| 20260504172947 | 60 | 121 | 0.0 | 1.0 | 0.00 | 0.13 | 0.00 | 86 | 1014.2 |
| 20260504172435 | 60 | 121 | 0.0 | 1.0 | 0.00 | 0.13 | 0.00 | 86 | 1014.2 |
| 20260504171918 | 60 | 123 | 0.0 | 0.0 | 0.00 | 0.13 | 0.00 | 86 | 1014.3 |
| 20260504171408 | 60 | 123 | 0.0 | 0.0 | 0.00 | 0.13 | 0.00 | 86 | 1014.3 |
| 20260504170902 | 61 | 123 | 0.0 | 0.0 | 0.00 | 0.13 | 0.00 | 86 | 1014.3 |
| 20260504170358 | 61 | 123 | 0.0 | 0.0 | 0.00 | 0.13 | 0.00 | 86 | 1014.3 |
| 20260504150714 | 64 | 5 | 0.0 | 0.0 | 0.00 | 0.13 | 0.00 | 86 | 1014.2 |
| 20260504141232 | 65 | 5 | 0.0 | 0.0 | 0.00 | 0.13 | 0.00 | 85 | 1014.2 |
| 20260504140721 | 65 | 5 | 0.0 | 0.0 | 0.00 | 0.13 | 0.00 | 85 | 1014.3 |
| 20260504140702 | 65 | 5 | 0.0 | 0.0 | 0.00 | 0.13 | 0.00 | 84 | 1014.3 |
| 20260504130447 | 66 | 5 | 0.0 | 0.0 | 0.00 | 0.13 | 0.13 | 82 | 1014.1 |
| 20260504120204 | 66 | 5 | 0.0 | 0.0 | 0.00 | 0.13 | 0.13 | 81 | 1014.1 |
| 20260504110540 | 67 | 10 | 0.0 | 1.0 | 0.00 | 0.13 | 0.13 | 79 | 1013.5 |
| 20260504100339 | 68 | 326 | 0.0 | 1.0 | 0.00 | 0.13 | 0.13 | 78 | 1013.0 |
| 20260504081538 | 68 | 303 | 0.0 | 1.0 | 0.00 | 0.13 | 0.13 | 79 | 1012.8 |
| 20260504081041 | 68 | 303 | 0.0 | 1.0 | 0.00 | 0.13 | 0.13 | 80 | 1012.7 |
| 20260504080537 | 68 | 303 | 0.0 | 1.0 | 0.00 | 0.13 | 0.13 | 80 | 1012.6 |
| 20260504080247 | 68 | 303 | 0.0 | 1.0 | 0.00 | 0.13 | 0.13 | 80 | 1012.8 |
| 20260504070357 | 68 | 327 | 0.0 | 0.0 | 0.00 | 0.13 | 0.13 | 82 | 1012.4 |
| 20260504060211 | 69 | 317 | 0.0 | 0.0 | 0.00 | 0.13 | 0.13 | 81 | 1012.6 |
| 20260504050534 | 68 | 5 | 0.0 | 7.0 | 0.00 | 0.13 | 0.13 | 85 | 1012.5 |
| 20260504050014 | 67 | 5 | 0.0 | 7.0 | 0.00 | 0.13 | 0.13 | 86 | 1012.6 |
| 20260504045514 | 67 | 9 | 0.0 | 1.0 | 0.00 | 0.13 | 0.13 | 86 | 1012.6 |
| 20260504045010 | 67 | 9 | 0.0 | 1.0 | 0.00 | 0.13 | 0.13 | 87 | 1012.5 |
| 20260504044458 | 67 | 9 | 0.0 | 1.0 | 0.00 | 0.13 | 0.13 | 87 | 1012.6 |
| 20260504043948 | 67 | 9 | 0.0 | 2.0 | 0.00 | 0.13 | 0.13 | 88 | 1012.6 |
| 20260504043439 | 67 | 10 | 0.0 | 2.0 | 0.00 | 0.13 | 0.13 | 88 | 1012.6 |
| 20260504042935 | 67 | 9 | 0.0 | 2.0 | 0.00 | 0.13 | 0.13 | 89 | 1012.6 |
| 20260504042433 | 67 | 10 | 0.0 | 5.0 | 0.00 | 0.13 | 0.13 | 89 | 1012.6 |
| 20260504042347 | 67 | 9 | 0.0 | 5.0 | 0.00 | 0.13 | 0.13 | 90 | 1012.6 |
| 20260504041354 | 67 | 5 | 0.0 | 1.0 | 0.00 | 0.13 | 0.13 | 90 | 1012.6 |
| 20260504040844 | 67 | 5 | 0.0 | 4.0 | 0.00 | 0.13 | 0.13 | 91 | 1012.7 |
| 20260504040658 | 67 | 5 | 0.0 | 4.0 | 0.00 | 0.13 | 0.13 | 91 | 1012.8 |
| 20260504040554 | 67 | 5 | 0.0 | 1.0 | 0.00 | 0.13 | 0.13 | 91 | 1012.9 |
| 20260504035323 | 67 | 5 | 0.0 | 2.0 | 0.00 | 0.13 | 0.13 | 91 | 1013.0 |
| 20260504035030 | 66 | 5 | 0.0 | 2.0 | 0.00 | 0.13 | 0.13 | 91 | 1013.1 |
| 20260504034530 | 66 | 223 | 0.0 | 1.0 | 0.00 | 0.13 | 0.13 | 91 | 1013.0 |
| 20260504033756 | 66 | 223 | 0.0 | 1.0 | 0.00 | 0.13 | 0.13 | 91 | 1013.2 |
| 20260504033253 | 65 | 223 | 0.0 | 1.0 | 0.01 | 0.13 | 0.13 | 91 | 1013.2 |
| 20260504032745 | 65 | 229 | 0.0 | 1.0 | 0.02 | 0.13 | 0.13 | 91 | 1013.1 |
| 20260504032234 | 65 | 229 | 0.0 | 2.0 | 0.02 | 0.13 | 0.13 | 91 | 1013.2 |
| 20260504031728 | 65 | 332 | 0.0 | 2.0 | 0.02 | 0.13 | 0.13 | 91 | 1013.5 |
| 20260504031444 | 65 | 331 | 0.0 | 1.0 | 0.04 | 0.13 | 0.13 | 91 | 1013.4 |
| 20260504030708 | 65 | 331 | 0.0 | 2.0 | 0.05 | 0.13 | 0.13 | 91 | 1013.5 |
| 20260504030641 | 64 | 330 | 0.0 | 2.0 | 0.06 | 0.13 | 0.13 | 91 | 1013.6 |
| 20260504025657 | 65 | 330 | 0.0 | 1.0 | 0.06 | 0.13 | 0.13 | 91 | 1013.8 |
| 20260504025146 | 65 | 330 | 0.0 | 1.0 | 0.08 | 0.13 | 0.13 | 91 | 1014.0 |
| 20260504024646 | 65 | 330 | 0.0 | 1.0 | 0.09 | 0.13 | 0.13 | 91 | 1014.0 |
| 20260504024401 | 65 | 330 | 0.0 | 1.0 | 0.09 | 0.13 | 0.13 | 90 | 1014.1 |
| 20260504023638 | 65 | 329 | 0.0 | 3.0 | 0.09 | 0.13 | 0.13 | 90 | 1014.3 |
| 20260504023140 | 65 | 329 | 0.0 | 3.0 | 0.08 | 0.12 | 0.13 | 90 | 1014.5 |
| 20260504023122 | 65 | 344 | 0.0 | 2.0 | 0.08 | 0.12 | 0.12 | 90 | 1014.4 |
| 20260504022402 | 65 | 344 | 0.0 | 2.0 | 0.09 | 0.11 | 0.11 | 90 | 1014.6 |
| 20260504021629 | 65 | 330 | 0.0 | 1.0 | 0.08 | 0.11 | 0.11 | 90 | 1014.8 |
| 20260504021136 | 65 | 330 | 0.0 | 1.0 | 0.07 | 0.09 | 0.10 | 90 | 1014.9 |
| 20260504020626 | 66 | 329 | 0.0 | 0.0 | 0.07 | 0.09 | 0.09 | 91 | 1015.0 |
| 20260504020122 | 66 | 329 | 0.0 | 0.0 | 0.06 | 0.08 | 0.08 | 91 | 1015.1 |
| 20260504015618 | 66 | 329 | 0.0 | 0.0 | 0.06 | 0.07 | 0.07 | 90 | 1015.1 |
| 20260504015334 | 66 | 329 | 0.0 | 0.0 | 0.04 | 0.05 | 0.06 | 91 | 1015.2 |
| 20260504014557 | 66 | 329 | 0.0 | 0.0 | 0.04 | 0.05 | 0.05 | 91 | 1015.2 |
| 20260504014042 | 66 | 329 | 0.0 | 0.0 | 0.04 | 0.04 | 0.04 | 91 | 1015.3 |
| 20260504013535 | 66 | 329 | 0.0 | 0.0 | 0.03 | 0.04 | 0.04 | 91 | 1015.3 |
| 20260504013032 | 67 | 329 | 0.0 | 0.0 | 0.03 | 0.04 | 0.04 | 91 | 1015.4 |
| 20260504012528 | 67 | 329 | 0.0 | 0.0 | 0.02 | 0.03 | 0.04 | 91 | 1015.5 |
| 20260504012012 | 67 | 329 | 0.0 | 0.0 | 0.02 | 0.03 | 0.03 | 92 | 1015.6 |
| 20260504011511 | 67 | 329 | 0.0 | 0.0 | 0.02 | 0.02 | 0.02 | 92 | 1015.7 |
| 20260504010954 | 67 | 329 | 0.0 | 0.0 | 0.01 | 0.02 | 0.02 | 92 | 1015.9 |
| 20260504010449 | 67 | 329 | 0.0 | 0.0 | 0.01 | 0.02 | 0.02 | 92 | 1015.9 |
| 20260504005950 | 66 | 329 | 0.0 | 0.0 | 0.00 | 0.01 | 0.02 | 92 | 1015.9 |
| 20260504005445 | 66 | 329 | 0.0 | 0.0 | 0.00 | 0.01 | 0.01 | 92 | 1015.9 |
| 20260504004934 | 66 | 329 | 0.0 | 0.0 | 0.00 | 0.01 | 0.01 | 92 | 1015.8 |
| 20260504004431 | 66 | 329 | 0.0 | 0.0 | 0.00 | 0.01 | 0.01 | 93 | 1015.7 |
| 20260504004134 | 66 | 329 | 0.0 | 0.0 | 0.00 | 0.01 | 0.01 | 92 | 1015.6 |
| 20260504003634 | 65 | 329 | 0.0 | 0.0 | 0.00 | 0.01 | 0.01 | 93 | 1015.6 |